FLOCK 3P-18 (41957 NORAD) Tracking and Keplerian Element Data

This shows tracking and keplerian element data for the satellite.

Feedback or suggestion? Click here.




ElementValue
Catalog41957
NameFLOCK 3P-18
Epoch Orbit5525
Epoch Day45.447371
Epoch Year2018
RAAN110.9111
Inclination97.4646
Eccentricity0.0010478
Argument of Perigee66.9583
Mean Anonmoly293.2758
Mean Motion15.24133514
Decay Rate3.096E-05
L11 41957U 17008K 18045.44737100 .00003096 00000-0 13015-3 0 9997
L22 41957 97.4646 110.9111 0010478 66.9583 293.2758 15.24133514 55257

Live tracking and technical data element details for FLOCK 3P-18 (NORAD 41957). FLOCK 3P-18 can be tracked NOW for your location showing map with azimuth and elevation plus other details from your city location.

Track the satellite on the map from your city or location and see movement details for azimuth, elevation, latitude, longitude, range, height, and movement on the map or in text.







IsCatalogInMostPopularTable: catalog: 41957, numindb: 111
Update: records affected: 1



GetName: 41957 FLOCK 3P-18

Hit Count: updated at: Fri, 16 Nov 2018 11:56:19 GMT